Regional Weather Roundup
Issued by NWS Goodland, KS

Home | Current Version | Previous Version | Text Only | Print | Product List | Glossary Off
Versions: 1 2 3 4 5 6 7 8 9 10 11 12 13 14 15 16 17 18 19 20 21 22 23 24 25 26 27 28 29 30 31 32 33 34 35 36 37 38 39 40 41 42 43 44 45 46 47 48 49 50

000
ASUS43 KGLD 231559
RWRGLD

GOODLAND FORECAST AREA HOURLY WEATHER ROUNDUP
NATIONAL WEATHER SERVICE GOODLAND KS
900 AM MST THU FEB 23 2017

...OFFICIAL OBSERVATIONS...

CITY           SKY/WX    TMP DP  RH WIND       PRES   REMARKS
GOODLAND KS    CLOUDY    34  33  96 E21G31    29.56
HILL CITY KS   CLOUDY    40  35  83 E24G32    29.61
IMPERIAL NEB   CLOUDY    32  29  88 NE16G26   29.64
MCCOOK NEB     CLOUDY    33  32  96 NE23      29.64  FOG
AKRON CO       CLOUDY    29  27  92 E16G23    29.56  FOG     WCI  17
BURLINGTON CO  FOG       35  34  96 E22       29.53  VSB 1/4
LIMON CO       FOG       28  28 100 E10       29.50  VSB 1/4 WCI  19
$$

...UNOFFICIAL OBSERVATIONS...

CITY           SKY/WX    TMP DP  RH WIND       PRES   REMARKS
NORTON KS      CLOUDY    36  30  80 NE18G24   29.62
SHARON SPRINGS   N/A     38  35  89 NE16G23     N/A
TRENTON NEB      N/A     33  32  96 E13         N/A
YUMA CO        DRIZZLE   32  30  93 NE10      29.57
$$



USA.gov is the U.S. government's official web portal to all federal, state and local government web resources and services.